GW1753 Weather Reports


Display with metric or nautical units.
time (UTC)temp
F
wind
direction
speed
MPH
gust
MPH
rain 1hr
in
rain 24hr
in
rain mn
in
humidity
%
barometer
mb
20260508135306 47 232 0.0 0.0 0.00 0.00 0.00 78 1015.9
20260508134801 47 234 0.0 0.0 0.00 0.00 0.00 78 1015.9
20260508134259 46 243 0.0 0.0 0.00 0.00 0.00 79 1015.8
20260508133756 45 260 0.0 0.0 0.00 0.00 0.00 81 1015.9
20260508133253 45 253 0.0 0.0 0.00 0.00 0.00 81 1015.9
20260508132751 44 218 0.0 0.0 0.00 0.00 0.00 81 1016.1
20260508132248 44 246 0.0 0.0 0.00 0.00 0.00 82 1016.1
20260508131744 43 244 0.0 0.0 0.00 0.00 0.00 83 1015.9
20260508131240 43 237 0.0 0.0 0.00 0.00 0.00 83 1016.1
20260508130737 43 226 0.0 0.0 0.00 0.00 0.00 83 1015.9
20260508130234 43 234 0.0 0.0 0.00 0.00 0.00 84 1015.8
20260508125730 43 252 0.0 0.0 0.00 0.00 0.00 85 1015.6
20260508125226 42 252 0.0 0.0 0.00 0.00 0.00 85 1015.9
20260508124725 41 249 0.0 0.0 0.00 0.00 0.00 85 1015.9
20260508124221 40 277 0.0 0.0 0.00 0.00 0.00 86 1015.9
20260508123720 40 276 0.0 0.0 0.00 0.00 0.00 87 1015.7
20260508123217 39 274 0.0 0.0 0.00 0.00 0.00 87 1015.8
20260508122713 39 278 0.0 0.0 0.00 0.00 0.00 86 1015.9
20260508122210 39 276 0.0 0.0 0.00 0.00 0.00 88 1015.8
20260508121708 39 263 0.0 0.0 0.00 0.00 0.00 87 1016.1
20260508121206 39 260 0.0 0.0 0.00 0.00 0.00 87 1016.1
20260508120703 39 250 0.0 0.0 0.00 0.00 0.00 86 1015.9
20260508120201 39 243 0.0 0.0 0.00 0.00 0.00 87 1015.9
20260508115659 39 289 0.0 0.0 0.00 0.00 0.00 86 1015.8
20260508115155 39 297 0.0 0.0 0.00 0.00 0.00 86 1015.7
20260508114652 39 279 0.0 0.0 0.00 0.00 0.00 85 1015.7
20260508114149 39 288 0.0 0.0 0.00 0.00 0.00 85 1015.9
20260508113646 39 287 0.0 0.0 0.00 0.00 0.00 84 1015.7
20260508113144 40 275 0.0 0.0 0.00 0.00 0.00 84 1015.8
20260508112640 41 273 0.0 0.0 0.00 0.00 0.00 84 1015.6
20260508112137 40 262 0.0 0.0 0.00 0.00 0.00 83 1015.6
20260508111633 41 261 0.0 0.0 0.00 0.00 0.00 83 1015.9
20260508111131 41 261 0.0 0.0 0.00 0.00 0.00 83 1015.7
20260508110629 41 266 0.0 0.0 0.00 0.00 0.00 83 1015.9
20260508110125 41 259 0.0 0.0 0.00 0.00 0.00 83 1015.8
20260508105625 41 260 0.0 0.0 0.00 0.00 0.00 83 1015.6
20260508105123 41 263 0.0 0.0 0.00 0.00 0.00 83 1016.1
20260508104620 41 250 0.0 0.0 0.00 0.00 0.00 81 1015.9
20260508104117 42 278 0.0 0.0 0.00 0.00 0.00 81 1016.2
20260508103614 42 289 0.0 0.0 0.00 0.00 0.00 81 1016.1
20260508103111 42 297 0.0 0.0 0.00 0.00 0.00 81 1016.1
20260508102608 42 282 0.0 0.0 0.00 0.00 0.00 81 1016.1
20260508102106 43 292 0.0 0.0 0.00 0.00 0.00 79 1015.8
20260508101603 43 323 0.0 0.0 0.00 0.00 0.00 79 1016.1
20260508101100 44 274 0.0 0.0 0.00 0.00 0.00 79 1015.9
20260508100558 44 266 0.0 0.0 0.00 0.00 0.00 78 1016.1
20260508100055 46 252 0.0 0.0 0.00 0.00 0.00 76 1016.1
20260508095552 46 272 0.0 0.0 0.00 0.00 0.00 75 1015.8
20260508095049 45 330 0.0 4.0 0.00 0.00 0.00 76 1015.9
20260508094546 43 260 0.0 0.0 0.00 0.00 0.00 76 1015.8
20260508094043 45 271 0.0 0.0 0.00 0.00 0.00 74 1015.8
20260508093540 46 313 0.0 1.0 0.00 0.00 0.00 71 1015.8
20260508093038 45 330 0.0 1.0 0.00 0.00 0.00 72 1015.8
20260508092535 45 318 0.0 0.0 0.00 0.00 0.00 71 1015.9
20260508092034 46 296 0.0 0.0 0.00 0.00 0.00 70 1016.2
20260508091530 46 299 0.0 0.0 0.00 0.00 0.00 70 1016.1
20260508091027 47 265 0.0 1.0 0.00 0.00 0.00 69 1015.8
20260508090525 48 255 0.0 3.0 0.00 0.00 0.00 67 1016.1
20260508090022 48 258 2.0 4.0 0.00 0.00 0.00 65 1016.1
20260508085518 48 284 1.0 3.0 0.00 0.00 0.00 65 1016.1
20260508085015 47 250 3.0 3.0 0.00 0.00 0.00 65 1016.2
20260508084512 46 244 0.0 2.0 0.00 0.00 0.00 68 1016.1
20260508084010 46 236 0.0 0.0 0.00 0.00 0.00 67 1015.9
20260508083506 47 237 0.0 0.0 0.00 0.00 0.00 65 1015.9
20260508083003 47 275 0.0 0.0 0.00 0.00 0.00 65 1015.7
20260508082459 47 282 0.0 0.0 0.00 0.00 0.00 64 1015.8
20260508081957 48 289 0.0 0.0 0.00 0.00 0.00 64 1015.8
20260508081453 48 303 0.0 0.0 0.00 0.00 0.00 63 1016.1
20260508080949 48 282 0.0 0.0 0.00 0.00 0.00 63 1015.9
20260508080448 48 295 0.0 0.0 0.00 0.00 0.00 62 1016.1
20260508075944 49 298 0.0 0.0 0.00 0.00 0.00 61 1015.9
20260508075441 50 298 1.0 2.0 0.00 0.00 0.00 60 1015.7
20260508074939 50 304 0.0 0.0 0.00 0.00 0.00 60 1015.9
20260508074437 51 304 0.0 1.0 0.00 0.00 0.00 60 1016.1
20260508073933 51 270 2.0 3.0 0.00 0.00 0.00 58 1016.3
20260508073431 52 290 1.0 3.0 0.00 0.00 0.00 58 1015.8
20260508072927 51 302 0.0 3.0 0.00 0.00 0.00 60 1015.9
20260508072423 51 253 0.0 0.0 0.00 0.00 0.00 63 1015.7
20260508071921 52 256 0.0 3.0 0.00 0.00 0.00 62 1016.1
20260508071419 52 299 0.0 4.0 0.00 0.00 0.00 62 1015.8
20260508070916 51 291 0.0 2.0 0.00 0.00 0.00 64 1015.8
20260508070414 50 295 0.0 0.0 0.00 0.00 0.00 64 1015.7
20260508065912 50 301 0.0 0.0 0.00 0.00 0.00 64 1015.6
20260508065410 49 294 0.0 0.0 0.00 0.00 0.00 63 1015.6
20260508064908 49 298 0.0 0.0 0.00 0.00 0.00 62 1015.5
20260508064405 50 285 0.0 0.0 0.00 0.00 0.00 62 1015.6
20260508063903 50 283 0.0 0.0 0.00 0.00 0.00 62 1015.6
20260508063400 48 282 0.0 2.0 0.00 0.00 0.00 64 1015.5
20260508062857 48 264 0.0 0.0 0.00 0.00 0.00 66 1015.6
20260508062354 48 268 0.0 0.0 0.00 0.00 0.00 64 1015.4
20260508061852 48 277 0.0 0.0 0.00 0.00 0.00 64 1015.5
20260508061349 48 281 0.0 0.0 0.00 0.00 0.00 62 1015.6
20260508060845 48 279 0.0 0.0 0.00 0.00 0.00 61 1015.6
20260508060343 49 278 0.0 0.0 0.00 0.00 0.00 61 1015.5
20260508055837 50 287 0.0 0.0 0.00 0.00 0.00 61 1015.5
20260508055336 51 263 0.0 0.0 0.00 0.00 0.00 61 1015.4
20260508054832 52 269 0.0 0.0 0.00 0.00 0.00 59 1015.6
20260508054329 51 258 0.0 0.0 0.00 0.00 0.00 58 1015.5
20260508053826 52 284 0.0 0.0 0.00 0.00 0.00 56 1015.3
20260508053324 53 266 0.0 0.0 0.00 0.00 0.00 55 1015.4
20260508052821 53 271 0.0 0.0 0.00 0.00 0.00 56 1015.6
20260508052318 55 243 0.0 0.0 0.00 0.00 0.00 53 1015.4
20260508051814 54 253 0.0 0.0 0.00 0.00 0.00 55 1015.4
20260508051309 54 257 0.0 0.0 0.00 0.00 0.00 54 1015.5
20260508050806 54 271 0.0 0.0 0.00 0.00 0.00 54 1015.5
20260508050303 55 276 0.0 0.0 0.00 0.00 0.00 53 1015.4
20260508045759 56 263 0.0 0.0 0.00 0.00 0.00 53 1015.4
20260508045257 57 274 0.0 1.0 0.00 0.00 0.00 51 1015.4
20260508044754 57 278 1.0 3.0 0.00 0.00 0.00 49 1015.3
20260508044251 58 275 1.0 3.0 0.00 0.00 0.00 48 1015.4
20260508043747 59 295 3.0 4.0 0.00 0.00 0.00 46 1015.3
20260508043244 59 303 1.0 4.0 0.00 0.00 0.00 46 1015.3
20260508042741 60 309 5.0 6.0 0.00 0.00 0.00 44 1015.4
20260508042239 61 268 4.0 6.0 0.00 0.00 0.00 43 1015.3
20260508041735 62 255 3.0 4.0 0.00 0.00 0.00 41 1015.1
20260508041232 62 244 4.0 8.0 0.00 0.00 0.00 39 1015.3
20260508040728 59 268 4.0 6.0 0.00 0.00 0.00 43 1015.3
20260508040225 59 268 1.0 4.0 0.00 0.00 0.00 46 1015.3
20260508035723 59 265 1.0 2.0 0.00 0.00 0.00 46 1015.5
20260508035220 59 296 3.0 4.0 0.00 0.00 0.00 46 1015.4
20260508034716 59 288 4.0 6.0 0.00 0.00 0.00 46 1015.5
20260508034214 59 295 1.0 6.0 0.00 0.00 0.00 46 1015.5
20260508033711 59 240 1.0 4.0 0.00 0.00 0.00 46 1015.3
20260508033209 60 276 3.0 8.0 0.00 0.00 0.00 45 1015.3
20260508032706 60 277 6.0 7.0 0.00 0.00 0.00 45 1015.2
20260508032203 60 274 4.0 6.0 0.00 0.00 0.00 43 1015.1
20260508031700 60 278 5.0 7.0 0.00 0.00 0.00 44 1015.2
20260508031156 60 278 4.0 6.0 0.00 0.00 0.00 43 1015.0
20260508030653 61 305 7.0 9.0 0.00 0.00 0.00 43 1015.0
20260508030151 61 280 7.0 11.0 0.00 0.00 0.00 43 1015.0
20260508025646 61 286 5.0 10.0 0.00 0.00 0.00 43 1015.0
20260508025144 58 279 3.0 7.0 0.00 0.00 0.00 45 1015.0
20260508024639 58 278 0.0 1.0 0.00 0.00 0.00 45 1015.0
20260508024137 58 304 0.0 0.0 0.00 0.00 0.00 45 1014.6
20260508023633 58 304 0.0 0.0 0.00 0.00 0.00 45 1014.3
20260508023131 58 304 0.0 0.0 0.00 0.00 0.00 45 1014.5
20260508022626 58 304 0.0 0.0 0.00 0.00 0.00 45 1014.4
20260508022124 59 304 0.0 0.0 0.00 0.00 0.00 44 1014.5
20260508021619 60 305 0.0 0.0 0.00 0.00 0.00 43 1014.2
20260508021115 61 302 0.0 0.0 0.00 0.00 0.00 42 1014.0
20260508020613 62 290 0.0 0.0 0.00 0.00 0.00 41 1014.3
20260508020111 62 285 0.0 0.0 0.00 0.00 0.00 41 1014.0
20260508015608 63 290 1.0 2.0 0.00 0.00 0.00 40 1014.1
20260508015105 64 268 0.0 1.0 0.00 0.00 0.00 40 1014.0
20260508014601 66 288 5.0 7.0 0.00 0.00 0.00 37 1014.0
20260508014057 66 289 4.0 4.0 0.00 0.00 0.00 37 1014.0
20260508013553 66 301 2.0 3.0 0.00 0.00 0.00 37 1014.1
20260508013051 66 301 2.0 3.0 0.00 0.00 0.00 37 1014.2
20260508012548 66 330 1.0 6.0 0.00 0.00 0.00 37 1014.1
20260508012046 67 277 3.0 4.0 0.00 0.00 0.00 36 1014.1
20260508011544 68 330 3.0 6.0 0.00 0.00 0.00 35 1014.1
20260508011041 69 310 2.0 6.0 0.00 0.00 0.00 34 1014.1
20260508010537 68 288 2.0 6.0 0.00 0.00 0.00 34 1014.2
20260508010035 69 340 4.0 9.0 0.00 0.00 0.00 34 1014.3
20260508005531 69 15 1.0 10.0 0.00 0.00 0.00 34 1014.3
20260508005028 69 281 6.0 13.0 0.00 0.00 0.00 35 1014.2
20260508004524 68 260 6.0 10.0 0.00 0.00 0.00 36 1014.2
20260508004021 68 315 7.0 11.0 0.00 0.00 0.00 37 1014.0
20260508003517 69 283 9.0 13.0 0.00 0.00 0.00 37 1014.1
20260508003015 68 266 9.0 13.0 0.00 0.00 0.00 38 1013.9
20260508002511 68 266 9.0 14.0 0.00 0.00 0.00 38 1014.0
20260508002008 69 259 5.0 14.0 0.00 0.00 0.00 38 1014.0
20260508001504 69 276 7.0 15.0 0.00 0.00 0.00 39 1013.8
20260508001000 69 280 9.0 13.0 0.00 0.00 0.00 38 1013.8
20260508000457 69 287 5.0 13.0 0.00 0.00 0.00 39 1013.7
20260507235954 69 237 9.0 11.0 0.00 0.00 0.00 32 1014.0
20260507235450 68 261 4.0 7.0 0.00 0.00 0.00 33 1013.8
20260507234948 68 259 4.0 8.0 0.00 0.00 0.00 33 1014.0
20260507234444 68 292 1.0 2.0 0.00 0.00 0.00 34 1013.7
20260507233941 68 257 7.0 9.0 0.00 0.00 0.00 33 1013.8
20260507233438 68 272 4.0 8.0 0.00 0.00 0.00 33 1013.8
20260507232936 68 248 4.0 8.0 0.00 0.00 0.00 34 1013.8
20260507232432 68 275 6.0 9.0 0.00 0.00 0.00 33 1013.9
20260507231930 68 274 7.0 9.0 0.00 0.00 0.00 33 1013.8
20260507231425 68 286 4.0 7.0 0.00 0.00 0.00 34 1014.0
20260507230922 68 221 8.0 11.0 0.00 0.00 0.00 34 1013.9
20260507230420 68 281 5.0 9.0 0.00 0.00 0.00 34 1013.9
20260507225920 68 279 6.0 11.0 0.00 0.00 0.00 34 1013.9
20260507225417 68 272 8.0 9.0 0.00 0.00 0.00 34 1013.8
20260507224913 69 291 12.0 16.0 0.00 0.00 0.00 34 1013.9
20260507224409 69 250 5.0 9.0 0.00 0.00 0.00 33 1013.7
20260507223906 68 250 4.0 9.0 0.00 0.00 0.00 33 1013.9
20260507223401 68 290 6.0 9.0 0.00 0.00 0.00 33 1014.2
20260507222859 69 263 9.0 11.0 0.00 0.00 0.00 32 1014.0
20260507222355 68 258 5.0 7.0 0.00 0.00 0.00 33 1014.0
20260507221852 69 298 7.0 9.0 0.00 0.00 0.00 33 1013.9
20260507221349 69 275 6.0 8.0 0.00 0.00 0.00 34 1014.1
20260507220845 68 240 4.0 14.0 0.00 0.00 0.00 34 1014.1
20260507220343 68 193 6.0 8.0 0.00 0.00 0.00 35 1014.1
20260507215839 69 276 3.0 7.0 0.00 0.00 0.00 36 1014.1
20260507215336 68 258 2.0 3.0 0.00 0.00 0.00 32 1014.3
20260507214833 69 277 1.0 4.0 0.00 0.00 0.00 32 1014.2
20260507214331 69 289 5.0 6.0 0.00 0.00 0.00 32 1014.2
20260507213831 70 330 1.0 7.0 0.00 0.00 0.00 31 1014.3
20260507213329 68 324 4.0 9.0 0.00 0.00 0.00 32 1014.3
20260507212825 69 302 7.0 10.0 0.00 0.00 0.00 33 1014.5
20260507212321 69 305 2.0 8.0 0.00 0.00 0.00 32 1014.4
20260507211818 70 328 3.0 9.0 0.00 0.00 0.00 32 1014.2
20260507211315 70 329 6.0 11.0 0.00 0.00 0.00 31 1014.1
20260507210812 70 309 9.0 11.0 0.00 0.00 0.00 31 1014.5
20260507210309 69 267 2.0 9.0 0.00 0.00 0.00 33 1014.3
20260507205805 69 236 7.0 9.0 0.00 0.00 0.00 34 1014.5
20260507205306 71 284 6.0 9.0 0.00 0.00 0.00 32 1014.6
20260507204758 70 250 6.0 10.0 0.00 0.00 0.00 33 1014.5
20260507204256 68 298 5.0 10.0 0.00 0.00 0.00 35 1014.9
20260507203753 66 268 4.0 9.0 0.00 0.00 0.00 37 1014.7
20260507203251 67 318 11.0 16.0 0.00 0.00 0.00 37 1014.6
20260507202747 68 270 6.0 14.0 0.00 0.00 0.00 35 1014.7
20260507202243 68 310 5.0 10.0 0.00 0.00 0.00 35 1014.5
20260507201738 67 295 7.0 10.0 0.00 0.00 0.00 34 1014.4
20260507201235 67 322 5.0 9.0 0.00 0.00 0.00 35 1014.5
20260507200732 67 301 4.0 11.0 0.00 0.00 0.00 35 1014.4
20260507200227 67 319 2.0 8.0 0.00 0.00 0.00 36 1014.3
20260507195724 66 290 3.0 7.0 0.00 0.00 0.00 36 1014.5
20260507195221 65 308 1.0 6.0 0.00 0.00 0.00 38 1014.3
20260507194718 64 283 6.0 9.0 0.00 0.00 0.00 39 1014.4
20260507194214 65 255 4.0 7.0 0.00 0.00 0.00 43 1014.4
20260507193711 67 280 5.0 8.0 0.00 0.00 0.00 34 1014.2
20260507193208 68 261 11.0 15.0 0.00 0.00 0.00 32 1014.2
20260507192704 69 284 9.0 11.0 0.00 0.00 0.00 32 1014.1
20260507192201 71 324 6.0 11.0 0.00 0.00 0.00 31 1014.4
20260507191656 70 335 1.0 7.0 0.00 0.00 0.00 32 1014.3
20260507191154 68 302 2.0 4.0 0.00 0.00 0.00 33 1014.3
20260507190651 67 280 4.0 7.0 0.00 0.00 0.00 32 1014.4
20260507190149 68 301 2.0 7.0 0.00 0.00 0.00 32 1014.1
20260507185648 68 296 4.0 7.0 0.00 0.00 0.00 31 1014.2
20260507185144 70 324 3.0 8.0 0.00 0.00 0.00 32 1014.4
20260507184642 70 349 2.0 9.0 0.00 0.00 0.00 33 1014.4
20260507184140 68 317 5.0 16.0 0.00 0.00 0.00 33 1014.4
20260507183636 68 339 2.0 6.0 0.00 0.00 0.00 34 1014.5
20260507183133 68 299 2.0 7.0 0.00 0.00 0.00 33 1014.9
20260507182629 70 314 1.0 6.0 0.00 0.00 0.00 33 1014.6
20260507182125 70 337 0.0 4.0 0.00 0.00 0.00 32 1014.3
20260507181622 69 352 5.0 8.0 0.00 0.00 0.00 33 1014.6
20260507181118 67 306 7.0 13.0 0.00 0.00 0.00 34 1014.7
20260507180615 69 344 4.0 10.0 0.00 0.00 0.00 33 1014.6
20260507180112 69 248 8.0 9.0 0.00 0.00 0.00 33 1014.6
20260507175608 68 331 2.0 10.0 0.00 0.00 0.00 34 1014.6
20260507175106 68 336 8.0 10.0 0.00 0.00 0.00 33 1014.7
20260507174602 67 335 4.0 7.0 0.00 0.00 0.00 35 1015.0
20260507174100 67 315 3.0 4.0 0.00 0.00 0.00 34 1015.0
20260507173557 68 35 2.0 9.0 0.00 0.00 0.00 34 1014.9
20260507173054 68 336 7.0 11.0 0.00 0.00 0.00 34 1014.9
20260507172550 70 294 2.0 7.0 0.00 0.00 0.00 32 1015.0
20260507172047 68 345 6.0 11.0 0.00 0.00 0.00 34 1015.1
20260507171542 68 301 3.0 9.0 0.00 0.00 0.00 36 1015.1
20260507171040 66 341 4.0 8.0 0.00 0.00 0.00 36 1014.9
20260507170536 67 249 11.0 13.0 0.00 0.00 0.00 35 1015.0
20260507170033 66 339 3.0 4.0 0.00 0.00 0.00 36 1015.0
20260507165529 67 248 6.0 7.0 0.00 0.00 0.00 35 1015.0
20260507165026 66 314 0.0 2.0 0.00 0.00 0.00 35 1014.9
20260507164522 67 249 6.0 8.0 0.00 0.00 0.00 36 1015.0
20260507164019 66 282 3.0 8.0 0.00 0.00 0.00 37 1015.0
20260507163516 65 235 1.0 6.0 0.00 0.00 0.00 37 1015.0
20260507163014 64 236 3.0 9.0 0.00 0.00 0.00 37 1015.2
20260507162509 63 231 7.0 8.0 0.00 0.00 0.00 37 1015.0
20260507162006 63 241 5.0 8.0 0.00 0.00 0.00 38 1015.2
20260507161502 62 243 6.0 8.0 0.00 0.00 0.00 38 1015.0
20260507160959 62 263 4.0 7.0 0.00 0.00 0.00 40 1015.2
20260507160455 61 246 6.0 9.0 0.00 0.00 0.00 40 1015.2
20260507155951 60 225 5.0 6.0 0.00 0.00 0.00 41 1015.2
20260507155447 61 230 6.0 7.0 0.00 0.00 0.00 38 1015.3
20260507154944 61 247 1.0 4.0 0.00 0.00 0.00 40 1015.3
20260507154441 59 257 2.0 6.0 0.00 0.00 0.00 44 1015.4
20260507153938 57 228 7.0 8.0 0.00 0.00 0.00 45 1015.3
20260507153435 57 232 2.0 4.0 0.00 0.00 0.00 46 1015.2
20260507152931 57 265 0.0 2.0 0.00 0.00 0.00 49 1015.4
20260507152427 56 242 2.0 7.0 0.00 0.00 0.00 49 1015.5
20260507151923 56 225 5.0 8.0 0.00 0.00 0.00 49 1015.4
20260507151420 57 247 1.0 2.0 0.00 0.00 0.00 44 1015.4
20260507150917 57 261 0.0 1.0 0.00 0.00 0.00 45 1015.4
20260507150414 56 254 2.0 3.0 0.00 0.00 0.00 47 1015.7
20260507145910 55 254 4.0 6.0 0.00 0.00 0.00 52 1015.4
20260507145406 55 275 0.0 2.0 0.00 0.00 0.00 49 1015.7
20260507144903 53 251 0.0 2.0 0.00 0.00 0.00 52 1015.5
20260507144400 53 263 4.0 6.0 0.00 0.00 0.00 52 1015.6
20260507143857 53 243 0.0 2.0 0.00 0.00 0.00 51 1015.6
20260507143354 52 254 1.0 6.0 0.00 0.00 0.00 52 1015.4
20260507142850 53 261 0.0 3.0 0.00 0.00 0.00 50 1015.4
20260507142347 53 275 2.0 6.0 0.00 0.00 0.00 46 1015.4
20260507141844 53 279 1.0 3.0 0.00 0.00 0.00 47 1015.5
20260507141340 52 251 2.0 4.0 0.00 0.00 0.00 47 1015.4
20260507140837 52 252 1.0 3.0 0.00 0.00 0.00 47 1015.3
20260507140334 52 263 1.0 2.0 0.00 0.00 0.00 47 1015.2
20260507135832 51 250 0.0 3.0 0.00 0.00 0.00 48 1015.2